Location: Unspecified
(0.0000°N, 0.0000°E)
Time: 08:27:05
(UTC+00:00)

Vanguard 1 - All Passes

Search period start: 03 April 2020 00:00
Search period end: 13 April 2020 00:00
Orbit: 649 x 3834 km, 34.2° (Epoch: 02 April)

Date Brightness Start Highest point End Pass type
(mag) Time Alt. Az. Time Alt. Az. Time Alt. Az.
03 Apr - 01:21:37 10° N 01:28:03 14° NNE 01:36:08 10° ENE visible
03 Apr - 03:38:54 10° NNW 03:54:38 48° NE 04:16:33 10° ESE visible
03 Apr - 06:00:52 10° WNW 06:21:44 79° SW 06:44:39 10° SE daylight
03 Apr - 08:30:10 10° W 08:50:16 35° SSW 09:07:05 10° SSE daylight
03 Apr - 11:13:21 10° SW 11:20:25 13° SSW 11:26:20 10° S daylight
03 Apr - 16:08:44 10° SSW 16:14:07 24° SSE 16:18:06 10° E daylight
03 Apr - 18:30:12 10° WSW 18:34:34 34° NW 18:38:39 10° NNE visible
04 Apr - 01:41:10 10° N 01:50:09 20° NE 02:02:28 10° ENE visible
04 Apr - 03:59:31 10° NW 04:16:07 60° NE 04:39:14 10° ESE visible
04 Apr - 06:22:32 10° WNW 06:43:29 65° SW 07:05:48 10° SE daylight
04 Apr - 08:54:19 10° W 09:12:39 28° SSW 09:27:46 10° SSE daylight
04 Apr - 11:39:46 10° SSW 11:43:33 11° SSW 11:46:56 10° S daylight
04 Apr - 14:09:44 10° S 14:12:00 11° S 14:14:01 10° SSE daylight
04 Apr - 16:29:12 10° SW 16:35:26 39° SSE 16:39:48 10° E daylight
04 Apr - 18:52:19 10° W 18:55:30 18° NW 18:58:38 10° N visible
05 Apr - 02:01:06 10° NNW 02:11:56 27° NE 02:27:39 10° E visible
05 Apr - 04:20:18 10° NW 04:37:35 73° NE 05:01:24 10° ESE visible
05 Apr - 06:44:35 10° WNW 07:05:22 54° SW 07:26:48 10° SE daylight
05 Apr - 09:19:16 10° WSW 09:35:23 23° SSW 09:48:31 10° SSE daylight
05 Apr - 12:04:30 10° SSW 12:06:41 10° S 12:08:43 10° S daylight
05 Apr - 14:28:56 10° SSW 14:34:05 15° SSE 14:38:01 10° SE daylight
05 Apr - 16:50:03 10° SW 16:56:31 71° SE 17:01:01 10° ENE daylight
06 Apr - 02:21:17 10° NNW 02:33:26 35° NE 02:51:54 10° E visible
06 Apr - 04:41:17 10° NW 04:59:05 88° NE 05:23:11 10° SE visible
06 Apr - 07:07:09 10° W 07:27:29 44° SSW 07:47:42 10° SE daylight
06 Apr - 09:44:53 10° WSW 09:58:26 18° SSW 10:09:28 10° SSE daylight
06 Apr - 12:26:06 10° SSW 12:29:40 11° S 12:32:47 10° SSE daylight
06 Apr - 14:49:03 10° SSW 14:55:55 22° SSE 15:00:39 10° ESE daylight
06 Apr - 17:11:17 10° WSW 17:17:24 63° NW 17:21:49 10° NE daylight
07 Apr - 00:27:18 10° NNE 00:30:00 11° NNE 00:33:01 10° NE visible
07 Apr - 02:41:37 10° NNW 02:54:46 46° NE 03:15:21 10° ESE visible
07 Apr - 05:02:32 10° WNW 05:20:43 77° SW 05:44:40 10° SE visible
07 Apr - 07:30:18 10° W 07:49:50 35° SSW 08:08:36 10° SSE daylight
07 Apr - 10:10:43 10° SW 10:21:46 16° SSW 10:30:47 10° SSE daylight
07 Apr - 12:46:46 10° SSW 12:52:24 13° S 12:56:54 10° SSE daylight
07 Apr - 15:09:34 10° SSW 15:17:32 32° SSE 15:22:36 10° E daylight
07 Apr - 17:32:59 10° WSW 17:38:10 33° NW 17:42:13 10° NNE daylight
08 Apr - 00:45:13 10° N 00:51:48 16° NE 01:00:37 10° ENE visible
08 Apr - 03:02:08 10° NW 03:16:00 59° NE 03:38:09 10° ESE visible
08 Apr - 05:24:04 10° WNW 05:42:31 64° SW 06:05:57 10° SE visible
08 Apr - 07:54:09 10° W 08:12:32 29° SSW 08:29:33 10° SSE daylight
08 Apr - 10:35:59 10° SW 10:45:13 14° S 10:52:45 10° SSE daylight
08 Apr - 13:07:20 10° SSW 13:14:51 17° SSE 13:20:21 10° SE daylight
08 Apr - 15:30:23 10° SW 15:38:54 50° SSE 15:44:03 10° ENE daylight
08 Apr - 17:55:24 10° W 17:58:58 18° NW 18:02:02 10° N daylight
09 Apr - 01:04:42 10° N 01:13:18 23° NE 01:26:00 10° E visible
09 Apr - 03:22:50 10° NW 03:37:17 74° NE 04:00:26 10° ESE visible
09 Apr - 05:45:59 10° WNW 06:04:31 52° SSW 06:27:05 10° SE daylight
09 Apr - 08:18:43 10° WSW 08:35:35 24° SSW 08:50:41 10° SSE daylight
09 Apr - 10:59:56 10° SSW 11:08:36 14° S 11:15:34 10° SSE daylight
09 Apr - 13:27:57 10° SSW 13:37:03 22° SSE 13:43:06 10° ESE daylight
09 Apr - 15:51:30 10° SW 16:00:01 82° SE 16:05:06 10° ENE daylight
10 Apr - 01:24:38 10° NNW 01:34:31 32° NE 01:50:18 10° E visible
10 Apr - 03:43:43 10° NW 03:58:40 90° NE 04:22:18 10° SE visible
10 Apr - 06:08:23 10° W 06:26:47 42° SSW 06:48:10 10° SE daylight
10 Apr - 08:43:49 10° WSW 08:58:59 20° SSW 09:12:08 10° SSE daylight
10 Apr - 11:22:31 10° SSW 11:31:48 16° S 11:38:55 10° SE daylight
10 Apr - 13:48:40 10° SSW 13:58:59 30° SSE 14:05:17 10° E daylight
10 Apr - 16:12:59 10° WSW 16:20:53 60° NW 16:25:48 10° NE daylight
11 Apr - 01:44:50 10° NNW 01:55:36 44° NE 02:13:47 10° ESE visible
11 Apr - 04:04:52 10° WNW 04:20:14 75° SW 04:43:54 10° SE visible
11 Apr - 06:31:20 10° W 06:49:21 35° SSW 07:09:17 10° SSE daylight
11 Apr - 09:09:02 10° SW 09:22:38 18° S 09:34:07 10° SSE daylight
11 Apr - 11:44:12 10° SSW 11:54:42 18° S 12:02:14 10° SE daylight
11 Apr - 14:09:34 10° SW 14:20:40 42° SSE 14:26:58 10° E daylight
11 Apr - 16:34:56 10° WSW 16:41:37 34° NW 16:46:08 10° NNE daylight
11 Apr - 23:50:01 10° NNE 23:53:59 13° NE 23:58:48 10° ENE visible
12 Apr - 02:05:15 10° NW 02:16:38 58° NE 02:36:37 10° ESE visible
12 Apr - 04:26:20 10° WNW 04:42:02 61° SW 05:05:16 10° SE visible
12 Apr - 06:54:54 10° WSW 07:12:16 29° SSW 07:30:31 10° SSE daylight
12 Apr - 09:33:43 10° SW 09:46:22 17° S 09:56:43 10° SSE daylight
12 Apr - 12:05:27 10° SSW 12:17:17 23° SSE 12:25:10 10° ESE daylight
12 Apr - 14:30:40 10° SW 14:42:04 61° SSE 14:48:16 10° ENE daylight
12 Apr - 16:57:33 10° W 17:02:18 19° NW 17:05:57 10° N daylight
